TimeEDT,TemperatureF,Dew PointF,Humidity,Sea Level PressureIn,VisibilityMPH,Wind Direction,Wind SpeedMPH,Gust SpeedMPH,PrecipitationIn,Events,Conditions,WindDirDegrees,DateUTC
12:54 AM,19.0,12.9,77,29.66,-9999.0,North,-9999.0,-,N/A,,Unknown,0,2013-03-22 04:54:00
1:54 AM,17.1,12.0,81,29.67,-9999.0,North,-9999.0,-,N/A,,Unknown,0,2013-03-22 05:54:00
2:54 AM,16.0,10.9,81,29.67,-9999.0,North,-9999.0,-,N/A,,Unknown,0,2013-03-22 06:54:00
3:54 AM,17.1,12.0,81,29.66,-9999.0,North,-9999.0,-,N/A,,Unknown,0,2013-03-22 07:54:00
4:54 AM,17.1,12.0,81,29.65,-9999.0,North,-9999.0,-,N/A,,Unknown,0,2013-03-22 08:54:00
5:54 AM,14.0,10.9,88,29.66,-9999.0,North,-9999.0,-,N/A,,Unknown,0,2013-03-22 09:54:00
6:54 AM,12.9,10.0,88,29.67,-9999.0,North,-9999.0,-,N/A,,Unknown,0,2013-03-22 10:54:00
7:54 AM,15.1,10.9,84,29.69,-9999.0,North,-9999.0,-,N/A,,Unknown,0,2013-03-22 11:54:00
8:54 AM,17.1,12.0,81,29.69,-9999.0,North,-9999.0,-,N/A,,Unknown,0,2013-03-22 12:54:00
9:54 AM,21.9,14.0,72,29.68,-9999.0,North,-9999.0,-,N/A,,Unknown,0,2013-03-22 13:54:00
10:54 AM,28.0,16.0,61,29.67,-9999.0,North,-9999.0,-,N/A,,Unknown,0,2013-03-22 14:54:00
11:54 AM,30.0,19.0,64,29.66,-9999.0,North,-9999.0,-,N/A,,Unknown,0,2013-03-22 15:54:00
12:54 PM,30.9,15.1,52,29.66,-9999.0,North,-9999.0,-,N/A,,Unknown,0,2013-03-22 16:54:00
1:54 PM,33.1,15.1,48,29.64,-9999.0,North,-9999.0,-,N/A,,Unknown,0,2013-03-22 17:54:00
2:54 PM,33.1,16.0,50,29.63,-9999.0,North,-9999.0,-,N/A,,Unknown,0,2013-03-22 18:54:00
3:54 PM,34.0,17.1,50,29.63,-9999.0,North,-9999.0,-,N/A,,Unknown,0,2013-03-22 19:54:00
4:54 PM,34.0,16.0,48,29.64,-9999.0,North,-9999.0,-,N/A,,Unknown,0,2013-03-22 20:54:00
5:54 PM,30.9,21.9,69,29.65,-9999.0,North,-9999.0,-,N/A,,Unknown,0,2013-03-22 21:54:00
6:54 PM,30.0,21.0,69,29.68,-9999.0,North,-9999.0,-,N/A,,Unknown,0,2013-03-22 22:54:00
7:54 PM,30.0,18.0,61,29.70,-9999.0,North,-9999.0,-,N/A,,Unknown,0,2013-03-22 23:54:00
8:54 PM,27.0,17.1,66,29.73,-9999.0,North,-9999.0,-,N/A,,Unknown,0,2013-03-23 00:54:00
9:54 PM,26.1,15.1,63,29.72,-9999.0,North,-9999.0,-,N/A,,Unknown,0,2013-03-23 01:54:00
10:54 PM,25.0,17.1,72,29.72,-9999.0,North,-9999.0,-,N/A,,Unknown,0,2013-03-23 02:54:00
11:54 PM,25.0,18.0,75,29.71,-9999.0,North,-9999.0,-,N/A,,Unknown,0,2013-03-23 03:54:00